| Date | Time | Temp. (oF) | Dew Point (oF) | Rel. Hum. (%) | Press. (in.) | Wind Dir. (deg.) | Wind Speed (mph) | Hourly Rainfall (i n.) |
|
|---|---|---|---|---|---|---|---|---|---|
| 1 | 12/15 | 24:00 | 38 | 36 | 94 | 30.08 | 330 | 0 | 0.00 |
| 2 | 12/14 | 23:00 | 38 | 36 | 94 | 30.08 | 330 | 0 | 0.00 |
| 3 | 12/14 | 22:00 | 38 | 36 | 94 | 30.06 | 10 | 7 | 0.01 |
| 4 | 12/14 | 21:00 | 38 | 36 | 94 | 30.06 | 330 | 2 | 0.01 |
| 5 | 12/14 | 20:00 | 38 | 36 | 93 | 30.04 | 300 | 7 | 0.01 |
| 6 | 12/14 | 19:00 | 39 | 36 | 91 | 30.01 | 330 | 1 | 0.00 |
| 7 | 12/14 | 18:00 | 39 | 36 | 91 | 29.98 | 40 | 1 | 0.00 |
| 8 | 12/14 | 17:00 | 38 | 36 | 93 | 29.99 | 350 | 2 | 0.00 |
| 9 | 12/14 | 16:00 | 39 | 37 | 93 | 29.97 | 350 | 1 | 0.00 |
| 10 | 12/14 | 15:00 | 39 | 37 | 93 | 29.96 | 30 | 0 | 0.01 |
| 11 | 12/14 | 14:00 | 39 | 37 | 93 | 29.96 | 20 | 0 | 0.32 |
| 12 | 12/14 | 13:00 | 39 | 36 | 92 | 29.91 | 180 | 9 | 0.00 |
| 13 | 12/14 | 12:00 | 39 | 37 | 93 | 29.90 | 60 | 2 | 0.13 |
| 14 | 12/14 | 11:00 | 38 | 36 | 93 | 29.97 | 50 | 2 | 0.12 |
| 15 | 12/14 | 10:00 | 38 | 36 | 93 | 29.98 | 70 | 7 | 0.09 |
| 16 | 12/14 | 09:00 | 39 | 36 | 92 | 30.04 | 90 | 1 | 0.14 |
| 17 | 12/14 | 08:00 | 39 | 36 | 92 | 30.06 | 100 | 4 | 0.11 |
| 18 | 12/14 | 07:00 | 39 | 36 | 91 | 30.08 | 70 | 1 | 0.14 |
| 19 | 12/14 | 06:00 | 40 | 36 | 87 | 30.07 | 130 | 2 | 0.00 |
| 20 | 12/14 | 05:00 | 40 | 36 | 86 | 30.09 | 50 | 0 | 0.00 |
| 21 | 12/14 | 04:00 | 40 | 36 | 86 | 30.10 | 30 | 1 | 0.00 |
| 22 | 12/14 | 03:00 | 40 | 36 | 87 | 30.11 | 30 | 0 | 0.00 |
| 23 | 12/14 | 02:00 | 40 | 37 | 90 | 30.13 | 50 | 1 | 0.00 |
| 24 | 12/14 | 01:00 | 39 | 36 | 91 | 30.14 | 10 | 1 | 0.00 |